www.pogodaiklimat.ru

Погода и климат >> Архив погоды >> Россия >> город Санкт-Петербург >> Санкт-Петербург


АРХИВ ПОГОДЫ в Санкт-Петербурге

Время (UTC), дата Ветер
(напр.,м/с)
 
Видим.   Явления Облачность Т
(С)
Тd
(С)
f
(%)
Тe
(С)
Тes
(С)
Комфортность P
(гПа)
Po
(гПа)
Тmin
(С)
Tmax
(С)
R
(мм)
R24
(мм)
S
(см)
09 18.08 СВ 1 10 км 8/4 1000 м
[Cu med, cong Ac trans Cc]
+22.2 +5.5 34 +23 +27 комфорт 1015.1 1014.4
12 18.08 СВ 1 10 км 8/0
[Ac cast Ci fib]
+23.8 +7.0 34 +24 +30 комфорт 1013.9 1013.2
15 18.08 СВ 1 10 км 8/3 1500 м
[Cu med, cong Ac cast Ci fib]
+22.6 +9.0 42 +24 +25 комфорт 1013.5 1012.8
18 18.08 В 1 10 км 3/0
[Ac trans]
+19.5 +9.9 54 +22 +22 комфорт 1013.5 1012.8 +24.1
21 18.08 штиль 0 10 км ясно +17.6 +11.7 68 +18 +18 тепло 1013.3 1012.6
00 19.08 штиль 0 10 км ясно +14.3 +12.3 88 +14 +14 по сезону 1013.2 1012.5
03 19.08 Ю 1 10 км 3/0
[Ci fib]
+15.4 +11.8 79 +16 +16 по сезону 1012.7 1012.0 +13.9
06 19.08 ЮВ 1 10 км 8/0
[Ac trans Ci fib]
+18.7 +12.4 67 +21 +23 комфорт 1012.2 1011.5 +13.9
09 19.08 ЮВ 2 10 км 9/0
[Ac As]
+22.1 +11.8 52 +24 +28 комфорт 1011.3 1010.6
12 19.08 Ю 3 10 км 9/0
[Ac As]
+22.8 +11.7 50 +25 +28 комфорт 1010.9 1010.2
15 19.08 Ю 2 10 км 8/0
[Ac trans]
+22.6 +13.6 57 +26 +27 жарко 1011.5 1010.8
18 19.08 ЮЗ 2 10 км 9/0 1500 м
[Ac trans]
+21.7 +15.2 67 +25 +25 комфорт 1012.7 1012.0 +24.1
21 19.08 З 1 10 км 6/0
[Ac trans]
+17.6 +13.8 78 +19 +19 тепло 1014.2 1013.5
00 20.08 З 1 10 км 8/0
[Ac trans]
+17.3 +13.8 80 +18 +18 тепло 1015.6 1014.9
03 20.08 ЮЗ 1 10 км 4/0
[Ac trans Ci fib]
+16.4 +13.7 84 +17 +17 тепло 1016.9 1016.2 +16.3
06 20.08 ЮЗ 2 10 км 4/3 600 м
[Cu hum Ci fib]
+17.8 +13.2 74 +18 +21 тепло 1018.7 1018.0 +16.1
09 20.08 ЮЗ 2 10 км 3/0
[]
+20.2 +12.2 60 +23 +31 комфорт 1019.5 1018.8
12 20.08 ЮЗ 2 10 км 10/3 600 м
[Sc As trans]
+22.2 +10.9 49 +24 +26 комфорт 1020.2 1019.5
15 20.08 ЮЗ 1 10 км 4/1 300 м
[Sc]
+21.6 +12.9 58 +24 +26 комфорт 1020.9 1020.2
18 20.08 ЮЗ 1 10 км 6/0
[As trans Ci fib]
+17.8 +13.3 75 +19 +19 тепло 1021.3 1020.6 +22.9
21 20.08 З 2 10 км 6/0
[Ac As]
+18.3 +13.5 74 +19 +19 тепло 1022.5 1021.8
00 21.08 штиль 0 10 км ясно +15.3 +13.1 87 +15 +15 по сезону 1023.1 1022.4
03 21.08 ЮЗ 1 10 км 10/0
[Ac trans Cc]
+15.5 +12.2 81 +16 +16 тепло 1024.0 1023.3 +14.3
06 21.08 ЮЗ 2 10 км 10/0
[Ac trans Ci fib]
+17.7 +11.7 68 +18 +21 тепло 1024.4 1023.7 +14.3
09 21.08 ЮЗ 2 10 км 10/0
[Ac As]
+19.3 +11.6 61 +21 +24 комфорт 1024.5 1023.8
12 21.08 СЗ 1 10 км 10/4 1000 м
[Sc diur, vesp As trans]
+20.7 +11.3 55 +24 +26 комфорт 1023.6 1022.9
15 21.08 Ю 1 10 км в посл. час дождь 10/6 600 м
[Sc diur, vesp Ac As]
+17.7 +12.7 73 +19 +19 тепло 1022.5 1021.8 0.0
18 21.08 ЮЗ 1 10 км слаб. дождь 10/10 300 м
[Frnb Ns]
+16.7 +14.2 85 +18 +18 тепло 1022.0 1021.3 +20.8 0.6
21 21.08 штиль 0 10 км слаб. дождь 10/10 300 м
[Frnb Ns]
+15.3 +13.7 90 +15 +15 по сезону 1020.6 1019.9
00 22.08 штиль 0 10 км {дождь} 10/6 1000 м
[Sc diur, vesp Ac As]
+14.9 +13.6 92 +15 +15 по сезону 1020.3 1019.6
03 22.08 З 1 10 км в посл. час ливневой дождь 9/6 1000 м
[Sc diur, vesp Ac trans]
+15.1 +13.8 92 +16 +16 тепло 1020.3 1019.6 +14.2 8
06 22.08 10 км н/о +16.4 +13.7 84 +17 +17 тепло 1020.5 1019.8 +14.2 8
09 22.08 З 4
{10}
10 км 5/5 600 м
[Cu med, cong]
+18.7 +12.0 65 +19 +22 тепло 1021.9 1021.2
12 22.08 З 3
{10}
10 км 4/4 600 м
[Cu med, cong]
+19.8 +12.6 63 +22 +26 комфорт 1022.8 1022.1
15 22.08 З 3 10 км 3/3 600 м
[Cu med, cong]
+19.4 +10.5 56 +21 +22 комфорт 1023.6 1022.9
18 22.08 З 3 10 км 1/0
[Ac trans]
+17.5 +12.0 70 +18 +18 тепло 1024.0 1023.3 +20.5
21 22.08 ЮЗ 2 10 км ясно +16.2 +11.9 76 +16 +16 по сезону 1024.9 1024.2
00 23.08 З 1 10 км 3/3 300 м
[Cu hum Ci fib]
+15.2 +12.7 85 +16 +16 тепло 1025.3 1024.6
03 23.08 ЮЗ 2 10 км 8/0
[Ac cast Cc]
+15.0 +12.0 82 +15 +15 по сезону 1025.5 1024.8 +14.9
06 23.08 ЮЗ 2 10 км 8/0
[Ac trans]
+16.0 +11.6 75 +16 +18 по сезону 1025.6 1024.9 +14.9
09 23.08 ЮЗ 3 10 км 9/0
[Ac trans]
+17.8 +11.8 68 +18 +21 тепло 1025.7 1024.9
12 23.08 ЮЗ 4 10 км 8/8 600 м
[Cu hum Ac trans]
+21.4 +9.1 45 +23 +24 комфорт 1024.2 1023.5
15 23.08 ЮЗ 3 10 км 8/0
[Ac trans]
+20.5 +8.9 47 +22 +23 комфорт 1022.4 1021.7
18 23.08 ЮЗ 5-10
{10}
10 км 9/0 2000 м
[Ac As]
+17.9 +11.4 66 +18 +18 тепло 1020.6 1019.9 +21.8
21 23.08 Ю 3 2000 м ливневой дождь 10/10 300 м
[Cb calv]
+15.1 +13.8 92 +14 +14 по сезону 1017.2 1016.5
00 24.08 ЮЗ 3 1000 м ливневой дождь 10/10 300 м
[Cb cap]
+16.1 +14.1 88 +16 +16 тепло 1016.2 1015.4
03 24.08 З 3
{10}
10 км {дождь} 10/10 300 м
[Sc]
+16.3 +13.6 84 +16 +16 тепло 1016.5 1015.8 +15.0 18
06 24.08 З 3
{10}
10 км 8/8 600 м
[Cu Sc]
+17.1 +11.8 71 +17 +18 тепло 1017.7 1017.0 +15.0 18
09 24.08 З 4
{10}
10 км 6/6 600 м
[Cu med, cong]
+17.5 +11.3 67 +17 +20 по сезону 1019.5 1018.8
12 24.08 З 5
{11}
10 км 6/6 600 м
[Cu hum]
+18.0 +11.0 64 +18 +19 по сезону 1021.1 1020.4
15 24.08 З 3
{10}
10 км 9/9 1000 м
[Sc]
+17.7 +11.0 65 +18 +18 по сезону 1022.6 1021.9
18 24.08 СЗ 1 10 км 1/0
[Ac trans]
+15.9 +10.9 72 +17 +17 тепло 1023.7 1023.0 +18.9
21 24.08 С 2 10 км ясно +14.6 +10.9 78 +14 +14 по сезону 1025.1 1024.4
00 25.08 СЗ 1 10 км ясно +12.3 +10.2 87 +12 +12 по сезону 1026.1 1025.4
03 25.08 З 1 10 км 4/0
[Ci fib]
+11.6 +10.2 91 +11 +11 прохладно 1027.7 1027.0 +11.3
06 25.08 С 1 10 км 6/4 1000 м
[Sc diur, vesp Ci fib]
+15.9 +12.0 78 +17 +19 тепло 1028.8 1028.1 +11.3

 

Местоположение метеостанции Санкт-Петербург (город Санкт-Петербург, Россия): широта 59.97 долгота 30.30 высота над уровнем моря 6 м.

В архиве по умолчанию представлена погода в Санкт-Петербурге за последнюю неделю. Архивные данные за месяц целиком и за предыдущие месяцы, начиная с января 2011 года, Вы можете получить, выбрав интересующий диапазон дат из раскрывающегося списка и нажав кнопку "Ввод!".


*Определитесь, кто Вы:
робот инопланетянин человек

Внимание! Время в таблицах - всемирное. Для получения местного времени необходимо прибавить поправку, которая равна 3 ч.

Смотрите также архив погоды в соседних городах и на ближайших метеорологических станциях:

Погода в Лисьем Носу (город Санкт-Петербург, Россия) (19 км)
Погода в Воейково (город Санкт-Петербург, Россия) (22 км)
Погода в Ломоносове (город Санкт-Петербург, Россия) (29 км)
Погода в Кронштадте (город Санкт-Петербург, Россия) (30 км)
Погода в Шлиссельбурге (Ленинградская область, Россия) (39 км)
Погода в Рощино (Ленинградская область, Россия) (48 км)
Погода в Шепелево (Ленинградская область, Россия) (58 км)
Погода в Сосново (Ленинградская область, Россия) (65 км)
Погода в Сосновом Бору (Ленинградская область, Россия) (65 км)
Погода в Белогорке (Ленинградская область, Россия) (70 км)

Пояснения к столбцам:

Ветер - указаны скорость ветра в м/с - средняя за 10 мин, порывы в срок и между сроками (в фигурных скобках) и направление, откуда дует ветер: С - северный, СВ - северо-восточный, В - восточный, ЮВ - юго-восточный, Ю - южный, ЮЗ - юго-западный, З - западный, СЗ - северо-западный.
Видимость - горизонтальная дальность видимости в метрах или километрах. При видимости от 1 до 10 км при отсутствии осадков обычно наблюдается дымка, при ухудшении видимости до 1 км и менее - туман. В сухую погоду видимость может ухудшаться дымом, пылью или мглою.
Явления - указаны атмосферные явления, наблюдавшиеся в срок или в последний час перед сроком; фигурными скобками обозначены явления, наблюдавшиеся между сроками (за 1-3 часа до срока); квадратными скобками обозначены град или гололедные отложения с указанием их диаметра в мм.
Облачность - указаны через наклонную черту общая и нижняя облачность в баллах и высота нижней границы облаков в метрах; квадратными скобками обозначены формы облаков: Ci - перистые, Cs - перисто-слоистые, Cc - перисто-кучевые, Ac - высококучевые, As - высокослоистые, Sc - слоисто-кучевые, Ns - слоисто-дождевые, Cu - кучевые, Cb - кучево-дождевые. Подробнее классификацию облаков см. в Атласе облаков (PDF).
T - Температура воздуха - температура, измеренная на высоте 2 м над землей.
Td - Температура точки росы - температура, при понижении до которой содержащийся в воздухе водяной пар достигнет насыщения.
f - Относительная влажность воздуха - влажноcть воздуха, измеренная на высоте 2 м над землей.
Te - Эффективная температура - температура, которую ощущает одетый по сезону человек в тени. Характеристика душности погоды. При расчете учитывается влияние влажности воздуха и скорости ветра на теплоощущения человека.
Tes - Эффективная температура на солнце - температура, которую ощущает человек, с поправкой на солнечный нагрев. Характеристика знойности погоды. Зависит от высоты солнца над горизонтом, облачности и скорости ветра. Ночью, в пасмурную погоду, а также при ветре 12 м/с и более поправка равна нулю.
P - Атмосферное давление - приведенное к уровню моря атмосферное давление.
Po - Атмосферное давление - измеренное на уровне метеостанции атмосферное давление.
Tmin - Минимальная температура - минимум температуры воздуха на высоте 2 м над землей.
Tmax - Максимальная температура - максимум температуры воздуха на высоте 2 м над землей.
R - Количество осадков - Количество выпавших осадков за период времени, мм. При наведении курсора мыши на число - период времени, за который выпало указанное количество осадков.
R24 - Количество осадков - Количество выпавших осадков за 24 часа, мм.
S - Снежный покров - Высота снежного покрова, см. При наведении курсора мыши на число - состояние снежного покрова и степень покрытия местности в баллах.